User: anonymous   Login
Location: Brno
(49.2000°N, 16.6333°E)
Time: 14:45:42
(UTC+02:00)
Language:

ISS - Orbit

View from above orbital plane
View from above orbital plane
View from above satellite
View from above satellite

Ground track
Ground track

The orbit data is extracted from the following two-line orbital elements,

1 25544U 98067A   19111.50572992  .00016717  00000-0  10270-3 0  9021
2 25544  51.6371 282.9572 0001424 208.0804 152.0271 15.52573533  6444
Epoch (UTC): 21 April 2019 12:08:15
Eccentricity: 0.0001424
inclination: 51.6371°
perigee height: 408 km
apogee height: 410 km
right ascension of ascending node: 282.9572°
argument of perigee: 208.0804°
revolutions per day: 15.52573533
mean anomaly at epoch: 152.0271°
orbit number at epoch: 644

The dashed part of the orbit path shows where the satellite is in the earth's shadow,  

DLR